EW0122 Weather Reports


time (UTC)temp
F
wind
direction
speed
knots
gust
knots
rain 1hr
in
rain 24hr
in
rain mn
in
humidity
%
barometer
mb
20260510192513 65 254 1.7 9.6 0.00 0.01 0.00 49 1012.4
20260510192012 65 293 2.6 9.6 0.00 0.01 0.00 48 1012.5
20260510191529 65 293 3.5 13.0 0.00 0.01 0.00 48 1012.6
20260510191017 64 248 2.6 13.0 0.00 0.01 0.00 50 1012.6
20260510190513 64 232 4.3 13.0 0.00 0.01 0.00 48 1012.6
20260510190035 64 248 3.5 8.7 0.00 0.01 0.00 49 1012.5
20260510185517 64 330 2.6 8.7 0.00 0.05 0.00 49 1012.7
20260510185013 64 243 2.6 9.6 0.00 0.05 0.00 46 1012.7
20260510184530 64 301 2.6 10.4 0.00 0.05 0.00 47 1012.7
20260510184015 64 293 4.3 10.4 0.00 0.05 0.00 47 1013.0
20260510183513 64 297 1.7 12.2 0.00 0.05 0.00 49 1012.7
20260510183033 64 269 3.5 12.2 0.00 0.05 0.00 48 1012.8
20260510182515 64 257 2.6 12.2 0.00 0.05 0.00 47 1012.9
20260510182014 64 322 3.5 9.6 0.00 0.05 0.00 45 1012.9
20260510181535 64 302 3.5 9.6 0.00 0.05 0.00 44 1013.0
20260510181012 64 270 1.7 9.6 0.00 0.05 0.00 46 1013.0
20260510180512 65 237 2.6 9.6 0.00 0.05 0.00 45 1013.2
20260510180039 65 243 1.7 8.7 0.00 0.05 0.00 47 1013.2
20260510175511 65 277 1.7 8.7 0.00 0.08 0.00 50 1013.1
20260510175014 65 303 2.6 7.0 0.00 0.08 0.00 50 1013.2
20260510174531 64 227 1.7 4.3 0.00 0.08 0.00 52 1013.2
20260510174015 64 280 1.7 6.1 0.00 0.08 0.00 54 1013.1
20260510173511 63 297 1.7 7.0 0.00 0.08 0.00 53 1013.1
20260510173028 64 309 3.5 7.0 0.00 0.08 0.00 53 1013.0
20260510172513 63 320 2.6 7.0 0.00 0.08 0.00 52 1012.9
20260510172013 63 262 2.6 7.0 0.00 0.08 0.00 54 1012.7
20260510171533 63 303 1.7 8.7 0.00 0.08 0.00 56 1012.7
20260510171010 63 331 2.6 8.7 0.00 0.08 0.00 56 1012.9
20260510170514 63 252 3.5 8.7 0.00 0.08 0.00 56 1012.8
20260510170033 63 242 1.7 9.6 0.00 0.08 0.00 58 1012.8
20260510165515 62 283 2.6 9.6 0.00 0.11 0.00 58 1013.0
20260510165018 62 300 2.6 7.0 0.00 0.11 0.00 58 1013.0
20260510164532 62 298 1.7 7.0 0.00 0.11 0.00 61 1013.0
20260510164014 61 259 1.7 8.7 0.00 0.11 0.00 60 1012.9
20260510163512 61 236 2.6 8.7 0.00 0.11 0.00 61 1013.0
20260510163030 61 240 1.7 7.8 0.00 0.11 0.00 64 1013.0
20260510162512 61 307 1.7 7.8 0.00 0.11 0.00 65 1013.0
20260510162018 61 256 1.7 6.1 0.00 0.11 0.00 66 1013.0
20260510161529 60 239 0.9 8.7 0.00 0.11 0.00 67 1013.0
20260510161012 60 313 2.6 8.7 0.00 0.11 0.00 68 1013.0
20260510160515 60 300 3.5 7.8 0.00 0.11 0.00 69 1013.0
20260510160037 60 303 2.6 7.8 0.00 0.11 0.00 70 1012.9
20260510155517 59 311 3.5 7.8 0.00 0.16 0.00 71 1013.0
20260510155011 59 312 2.6 9.6 0.00 0.16 0.00 71 1012.8
20260510154533 58 301 2.6 9.6 0.00 0.16 0.00 72 1013.0
20260510154013 58 297 3.5 11.3 0.00 0.16 0.00 73 1013.0
20260510153514 57 275 2.6 11.3 0.00 0.16 0.00 73 1013.0
20260510153029 57 293 4.3 10.4 0.00 0.16 0.00 73 1013.0
20260510152515 57 264 2.6 10.4 0.00 0.16 0.00 74 1012.9
20260510152013 58 216 4.3 10.4 0.00 0.16 0.00 73 1013.0
20260510151538 59 305 4.3 10.4 0.00 0.16 0.00 71 1012.8
20260510151014 62 292 4.3 10.4 0.00 0.16 0.00 71 1012.6
20260510150512 62 283 0.9 4.3 0.00 0.16 0.00 74 1012.2
20260510150032 62 207 0.0 1.7 0.00 0.16 0.00 76 1012.1
20260510145512 61 217 0.0 0.9 0.00 0.27 0.00 75 1012.0
20260510145011 61 0 0.0 2.6 0.00 0.27 0.00 76 1012.0
20260510144534 61 218 0.0 2.6 0.00 0.27 0.00 77 1011.9
20260510144015 61 0 0.0 2.6 0.00 0.27 0.00 76 1011.9
20260510143513 61 0 0.9 2.6 0.00 0.27 0.00 77 1011.8
20260510143029 61 221 0.0 1.7 0.00 0.27 0.00 77 1011.6
20260510142512 61 0 0.0 1.7 0.00 0.27 0.00 78 1011.7
20260510142013 61 152 0.0 1.7 0.00 0.27 0.00 77 1011.7
20260510141529 61 217 0.0 0.9 0.00 0.27 0.00 78 1011.6
20260510141015 61 0 0.0 2.6 0.00 0.27 0.00 79 1011.7
20260510140513 60 0 0.9 2.6 0.00 0.27 0.00 78 1011.7
20260510140030 61 138 0.0 4.3 0.00 0.27 0.00 79 1011.7
20260510135511 60 0 0.0 4.3 0.00 0.36 0.00 80 1011.6
20260510135016 60 242 1.7 4.3 0.00 0.36 0.00 80 1011.6
20260510134529 59 233 0.9 3.5 0.00 0.36 0.00 82 1011.6
20260510134011 59 0 0.9 2.6 0.00 0.36 0.00 82 1011.5
20260510133510 58 221 0.9 3.5 0.00 0.36 0.00 83 1011.4
20260510133029 58 212 0.9 3.5 0.00 0.36 0.00 84 1011.3
20260510132512 57 233 0.0 2.6 0.00 0.36 0.00 86 1011.1
20260510132013 57 130 0.9 4.3 0.00 0.36 0.00 86 1011.2
20260510131532 56 210 0.9 4.3 0.00 0.36 0.00 88 1011.2
20260510131011 56 193 1.7 6.1 0.00 0.36 0.00 88 1011.2
20260510130515 55 110 0.9 6.1 0.00 0.36 0.00 89 1011.2
20260510130029 55 121 1.7 6.1 0.00 0.36 0.00 89 1011.2
20260510125513 55 190 1.7 5.2 0.00 0.44 0.00 89 1011.2
20260510125014 54 148 0.9 3.5 0.00 0.44 0.00 89 1011.2
20260510124529 54 0 0.0 2.6 0.00 0.44 0.00 90 1011.3
20260510124015 54 159 0.9 4.3 0.00 0.44 0.00 90 1011.2
20260510123511 54 203 0.9 4.3 0.00 0.44 0.00 90 1011.2
20260510123028 54 217 0.9 4.3 0.00 0.44 0.00 90 1011.2
20260510122513 53 233 0.9 4.3 0.00 0.44 0.00 90 1011.1
20260510122011 53 108 0.9 4.3 0.00 0.44 0.00 91 1011.1
20260510121529 53 180 0.9 4.3 0.00 0.44 0.00 91 1011.2
20260510121013 53 149 1.7 4.3 0.00 0.44 0.00 91 1011.0
20260510120518 53 158 0.9 6.1 0.00 0.44 0.00 91 1011.0
20260510120030 53 141 1.7 6.1 0.00 0.44 0.00 91 1011.0
20260510115514 53 146 0.9 4.3 0.00 0.46 0.00 92 1011.0
20260510115016 53 0 0.0 5.2 0.00 0.46 0.00 92 1011.0
20260510114529 53 143 1.7 5.2 0.00 0.46 0.00 92 1011.0
20260510114014 53 210 0.9 5.2 0.00 0.46 0.00 92 1011.0
20260510113511 53 135 0.9 5.2 0.00 0.46 0.00 92 1010.9
20260510113029 53 239 1.7 5.2 0.00 0.46 0.00 92 1010.8
20260510112511 52 203 0.9 5.2 0.00 0.46 0.00 93 1010.8
20260510112017 52 148 1.7 6.1 0.00 0.46 0.00 93 1010.8
20260510111530 52 175 1.7 6.1 0.00 0.46 0.00 93 1010.9
20260510111013 52 158 0.9 7.0 0.00 0.46 0.00 93 1010.9
20260510110511 52 145 0.9 7.0 0.00 0.46 0.00 93 1010.8
20260510110030 52 155 1.7 5.2 0.00 0.46 0.00 93 1010.8
20260510105513 52 169 0.9 4.3 0.00 0.46 0.00 93 1010.7
20260510105013 0 0.0 0.0 0.00 0.46 0.00 1010.8
20260510104530 0 0.0 0.0 0.00 0.46 0.00 1010.8
20260510104011 0 0.0 0.0 0.00 0.46 0.00 1010.6
20260510103513 0 0.0 0.0 0.00 0.46 0.00 1010.4
20260510103029 0 0.0 0.0 0.00 0.46 0.00 1010.1
20260510102514 0 0.0 0.0 0.00 0.46 0.00 1010.1
20260510102014 0 0.0 0.0 0.00 0.46 0.00 1010.0
20260510101531 0 0.0 0.0 0.00 0.46 0.00 1009.9
20260510101013 0 0.0 0.0 0.00 0.46 0.00 1009.7
20260510100513 0 0.0 0.0 0.00 0.46 0.00 1009.7
20260510100030 0 0.0 0.0 0.00 0.46 0.00 1009.7
20260510095519 0 0.0 0.0 0.00 0.46 0.00 1009.6
20260510095017 0 0.0 0.0 0.00 0.46 0.00 1009.6
20260510094541 0 0.0 0.0 0.00 0.46 0.00 1009.5
20260510094012 0 0.0 0.0 0.00 0.46 0.00 1009.4
20260510093511 0 0.0 0.0 0.00 0.46 0.00 1009.4
20260510093035 0 0.0 0.0 0.00 0.46 0.00 1009.4
20260510092515 0 0.0 0.0 0.00 0.46 0.00 1009.3
20260510092014 0 0.0 0.0 0.00 0.46 0.00 1009.1
20260510091539 0 0.0 0.0 0.00 0.46 0.00 1009.1
20260510091013 0 0.0 0.0 0.00 0.46 0.00 1009.0
20260510090512 0 0.0 0.0 0.00 0.46 0.00 1009.1
20260510090033 0 0.0 0.0 0.00 0.46 0.00 1009.1
20260510085512 0 0.0 0.0 0.00 0.46 0.00 1009.1
20260510085010 0 0.0 0.0 0.00 0.46 0.00 1009.1
20260510084534 0 1.7 0.0 0.00 0.46 0.00 1009.2
20260510084012 50 1.7 7.8 0.00 0.46 0.00 92 1009.1
20260510083514 50 161 2.6 7.8 0.00 0.46 0.00 92 1009.2
20260510083048 51 141 0.0 5.2 0.00 0.46 0.00 93 1009.1
20260510082513 51 122 0.0 4.3 0.00 0.46 0.00 93 1009.2
20260510082017 51 96 0.0 3.5 0.00 0.46 0.00 93 1009.0
20260510081531 51 217 1.7 5.2 0.00 0.46 0.00 93 1009.1
20260510081013 51 150 0.9 7.8 0.00 0.46 0.00 93 1009.2
20260510080512 51 159 0.9 7.8 0.00 0.46 0.00 93 1009.2
20260510080029 51 75 1.7 7.0 0.00 0.46 0.00 93 1009.3
20260510075512 51 96 1.7 7.0 0.00 0.46 0.00 92 1009.2
20260510075011 51 114 0.9 6.1 0.00 0.46 0.00 92 1009.1
20260510074532 51 219 1.7 6.1 0.00 0.46 0.00 92 1009.0
20260510074019 51 115 0.9 6.1 0.00 0.46 0.00 92 1009.2
20260510073513 51 134 0.0 5.2 0.00 0.46 0.00 92 1009.3
20260510073030 51 158 1.7 5.2 0.00 0.46 0.00 92 1009.6
20260510072516 51 199 0.9 3.5 0.00 0.46 0.00 92 1009.6
20260510072014 51 118 0.9 4.3 0.00 0.46 0.00 92 1009.7
20260510071535 52 137 0.0 5.2 0.00 0.46 0.00 92 1009.7
20260510071016 52 141 0.9 5.2 0.00 0.46 0.00 92 1009.8
20260510070513 52 152 1.7 4.3 0.00 0.46 0.00 92 1010.0
20260510070028 52 165 0.9 6.1 0.00 0.46 0.00 92 1009.9
20260510065512 52 203 0.0 6.1 0.00 0.46 0.00 92 1010.0
20260510065012 52 107 0.9 7.0 0.00 0.46 0.00 92 1010.1
20260510064530 52 169 0.9 7.0 0.00 0.46 0.00 92 1010.2
20260510064010 52 143 1.7 7.0 0.00 0.46 0.00 92 1010.1
20260510063513 52 194 0.0 2.6 0.00 0.46 0.00 91 1010.0
20260510063028 52 214 0.0 2.6 0.00 0.46 0.00 91 1010.0
20260510062514 52 212 0.0 2.6 0.00 0.46 0.00 91 1009.8
20260510062013 52 205 0.9 4.3 0.00 0.46 0.00 91 1009.9
20260510061533 52 0 0.9 4.3 0.00 0.46 0.00 91 1009.7
20260510061015 52 233 0.9 4.3 0.00 0.46 0.00 91 1009.7
20260510060512 52 148 0.9 6.1 0.00 0.46 0.00 91 1009.5
20260510060038 52 122 0.9 7.8 0.00 0.46 0.00 91 1009.4
20260510055512 52 160 0.9 7.8 0.00 0.46 0.00 91 1009.3
20260510055013 52 98 1.7 7.8 0.00 0.46 0.00 91 1009.2
20260510054537 52 225 0.9 3.5 0.00 0.46 0.00 91 1009.3
20260510054014 52 163 0.9 6.1 0.00 0.46 0.00 91 1009.3
20260510053511 52 200 1.7 7.0 0.00 0.46 0.00 91 1009.5
20260510053029 52 120 2.6 7.0 0.00 0.46 0.00 91 1009.3
20260510052516 52 211 0.9 4.3 0.00 0.46 0.00 91 1009.4
20260510052013 52 172 0.9 5.2 0.00 0.46 0.00 91 1009.5
20260510051533 52 148 0.9 5.2 0.00 0.46 0.00 91 1009.4
20260510051013 52 152 1.7 5.2 0.00 0.46 0.00 91 1009.3
20260510050513 52 118 0.0 4.3 0.00 0.46 0.00 91 1009.3
20260510050031 52 174 1.7 3.5 0.00 0.46 0.00 91 1009.4
20260510045516 52 207 0.0 3.5 0.00 0.46 0.00 91 1009.5
20260510045014 52 113 0.0 3.5 0.00 0.46 0.00 91 1009.4
20260510044530 52 141 0.9 3.5 0.00 0.46 0.00 91 1009.4
20260510044012 52 122 0.9 2.6 0.00 0.46 0.00 91 1009.5
20260510043513 52 122 0.0 2.6 0.00 0.46 0.00 91 1009.6
20260510043033 52 143 0.0 4.3 0.00 0.46 0.00 90 1009.6
20260510042515 52 136 1.7 4.3 0.00 0.46 0.00 90 1009.6
20260510042012 52 62 0.9 4.3 0.00 0.46 0.00 90 1009.5
20260510041528 52 221 0.9 4.3 0.00 0.46 0.00 90 1009.5
20260510041011 52 158 1.7 4.3 0.00 0.46 0.00 90 1009.4
20260510040511 52 203 0.9 3.5 0.00 0.46 0.00 90 1009.5
20260510040030 52 0 0.0 5.2 0.00 0.46 0.00 90 1009.5
20260510035510 52 149 0.0 5.2 0.00 0.46 0.46 90 1009.5
20260510035015 52 132 0.9 5.2 0.00 0.46 0.46 90 1009.4
20260510034528 52 121 0.9 3.5 0.00 0.46 0.46 90 1009.3
20260510034015 52 126 0.0 2.6 0.00 0.46 0.46 90 1009.4
20260510033517 52 0 0.0 3.5 0.00 0.46 0.46 90 1009.6
20260510033029 52 0 0.0 3.5 0.00 0.46 0.46 90 1009.3
20260510032512 52 135 0.0 2.6 0.00 0.46 0.46 90 1009.2
20260510032013 52 130 0.0 2.6 0.00 0.46 0.46 90 1009.2
20260510031531 52 134 0.9 2.6 0.00 0.46 0.46 90 1009.3
20260510031013 52 134 0.0 4.3 0.00 0.46 0.46 90 1009.3
20260510030521 52 152 0.9 4.3 0.00 0.46 0.46 89 1009.3
20260510030029 52 0 0.0 4.3 0.00 0.46 0.46 89 1009.3
20260510025515 53 0 0.9 4.3 0.00 0.46 0.46 89 1009.3
20260510025012 53 129 1.7 3.5 0.00 0.46 0.46 89 1009.2
20260510024530 53 134 0.0 2.6 0.00 0.46 0.46 89 1009.3
20260510024014 53 143 0.0 3.5 0.00 0.46 0.46 89 1009.5
20260510023513 53 0 0.0 5.2 0.00 0.46 0.46 89 1009.4
20260510023028 53 141 0.9 5.2 0.00 0.46 0.46 89 1009.5
20260510022513 53 121 0.9 6.1 0.00 0.46 0.46 89 1009.4
20260510022013 53 146 2.6 6.1 0.00 0.46 0.46 89 1009.4
20260510021528 53 141 0.9 4.3 0.00 0.46 0.46 89 1009.4
20260510021013 53 136 0.9 4.3 0.00 0.46 0.46 90 1009.4
20260510020515 53 152 0.9 4.3 0.00 0.46 0.46 90 1009.5
20260510020028 53 148 0.0 1.7 0.00 0.46 0.46 90 1009.5
20260510015514 53 146 0.0 1.7 0.00 0.46 0.46 90 1009.6
20260510015011 53 0 0.0 1.7 0.00 0.46 0.46 90 1009.7
20260510014535 53 134 0.0 2.6 0.00 0.46 0.46 90 1009.5
20260510014013 53 0 0.0 2.6 0.00 0.46 0.46 90 1009.4
20260510013511 53 134 0.0 3.5 0.00 0.46 0.46 90 1009.2
20260510013028 53 0 0.0 3.5 0.00 0.46 0.46 90 1009.3
20260510012510 53 135 0.9 3.5 0.00 0.46 0.46 90 1009.3
20260510012012 53 139 0.9 3.5 0.00 0.46 0.46 90 1009.5
20260510011531 53 141 0.0 4.3 0.00 0.46 0.46 90 1009.4
20260510011013 53 127 1.7 4.3 0.00 0.46 0.46 90 1009.5
20260510010511 53 127 0.9 2.6 0.00 0.46 0.46 90 1009.5
20260510010030 53 132 0.0 2.6 0.00 0.46 0.46 90 1009.5
20260510005512 53 0 0.0 2.6 0.00 0.46 0.46 90 1009.4
20260510005013 53 148 0.0 2.6 0.00 0.46 0.46 90 1009.4
20260510004529 53 129 0.0 3.5 0.00 0.46 0.46 90 1009.3
20260510004010 53 129 0.9 3.5 0.00 0.46 0.46 91 1009.2
20260510003513 53 124 0.0 0.9 0.00 0.46 0.46 91 1009.3
20260510003038 53 0 0.0 2.6 0.00 0.46 0.46 91 1009.4
20260510002510 53 0 0.0 2.6 0.00 0.46 0.46 91 1009.3
20260510002010 53 162 0.0 1.7 0.00 0.46 0.46 90 1009.1
20260510001530 53 0 0.0 2.6 0.00 0.46 0.46 90 1009.0
20260510001011 53 0 0.0 2.6 0.00 0.46 0.46 90 1008.7
20260510000510 53 0 0.0 3.5 0.00 0.46 0.46 90 1008.8
20260510000030 53 129 0.0 3.5 0.00 0.46 0.46 90 1008.6
20260509235512 53 104 0.9 3.5 0.00 0.46 0.46 90 1008.6
20260509235013 53 0 0.9 3.5 0.00 0.46 0.46 90 1008.7
20260509234538 53 0 0.0 2.6 0.00 0.46 0.46 90 1008.6
20260509234011 53 156 0.9 4.3 0.00 0.46 0.46 90 1008.6
20260509233513 53 149 0.9 4.3 0.00 0.46 0.46 90 1008.5
20260509233032 53 159 0.9 5.2 0.00 0.46 0.46 90 1008.5
20260509232512 53 203 1.7 5.2 0.00 0.46 0.46 90 1008.3
20260509232014 54 134 0.0 5.2 0.00 0.46 0.46 90 1008.2
20260509231535 54 337 0.0 5.2 0.00 0.46 0.46 90 1008.1
20260509231014 54 136 0.9 5.2 0.00 0.46 0.46 90 1008.0
20260509230511 54 231 0.9 3.5 0.00 0.46 0.46 90 1008.1
20260509230031 54 0 0.9 4.3 0.00 0.46 0.46 90 1008.0
20260509225514 54 0 0.0 6.1 0.00 0.46 0.46 90 1008.2
20260509225011 54 170 0.9 7.0 0.00 0.46 0.46 91 1008.3
20260509224533 54 143 2.6 7.0 0.00 0.46 0.46 91 1008.2
20260509224012 54 148 1.7 7.0 0.00 0.46 0.46 91 1008.2
20260509223513 54 155 1.7 7.0 0.00 0.46 0.46 92 1008.4
20260509223031 54 166 0.9 6.1 0.00 0.46 0.46 92 1008.3
20260509222511 54 115 0.9 4.3 0.00 0.46 0.46 92 1008.3
20260509222010 54 139 0.9 3.5 0.00 0.46 0.46 92 1008.3
20260509221530 54 169 0.9 5.2 0.00 0.46 0.46 93 1008.3
20260509221012 54 156 1.7 5.2 0.00 0.46 0.46 92 1008.3
20260509220511 54 162 0.0 7.0 0.00 0.46 0.46 93 1008.3
20260509220030 54 146 0.9 7.0 0.00 0.46 0.46 93 1008.3
20260509215516 54 212 0.9 3.5 0.00 0.46 0.46 93 1008.4
20260509215013 54 181 0.9 3.5 0.00 0.46 0.46 93 1008.5
20260509214527 54 121 0.9 3.5 0.00 0.46 0.46 93 1008.5
20260509214014 54 211 0.9 2.6 0.00 0.46 0.46 94 1008.6
20260509213511 54 147 0.0 3.5 0.00 0.46 0.46 94 1008.6
20260509213030 54 61 0.9 3.5 0.00 0.46 0.46 94 1008.7
20260509212511 53 132 0.9 4.3 0.00 0.46 0.46 94 1008.6
20260509212014 53 155 0.9 4.3 0.00 0.46 0.46 94 1008.6
20260509211528 53 200 0.9 4.3 0.00 0.46 0.46 94 1008.6
20260509211011 54 0 0.0 2.6 0.00 0.46 0.46 94 1008.5
20260509210512 53 0 0.9 6.1 0.00 0.46 0.46 94 1008.5
20260509210030 53 141 0.9 6.1 0.00 0.46 0.46 94 1008.6
20260509205512 53 115 0.9 5.2 0.00 0.46 0.46 94 1008.7
20260509205011 53 115 0.9 8.7 0.00 0.46 0.46 94 1008.8
20260509204530 53 155 0.0 8.7 0.00 0.46 0.46 94 1008.9
20260509204011 53 134 1.7 6.1 0.00 0.46 0.46 94 1008.9
20260509203511 53 153 0.9 4.3 0.00 0.46 0.46 94 1008.9
20260509203037 53 127 0.9 2.6 0.00 0.46 0.46 94 1009.0
20260509202512 53 0 0.0 2.6 0.00 0.46 0.46 94 1009.0
20260509202015 52 160 0.9 2.6 0.00 0.46 0.46 94 1009.1
20260509201530 52 93 0.9 2.6 0.00 0.46 0.46 94 1009.1
20260509201017 52 246 0.9 3.5 0.00 0.46 0.46 94 1009.2
20260509200513 52 136 0.0 3.5 0.01 0.46 0.46 94 1009.3
20260509200029 52 0 0.9 3.5 0.01 0.46 0.46 94 1009.3
20260509195513 52 0 0.0 1.7 0.02 0.46 0.46 94 1009.5
20260509195011 51 137 0.0 2.6 0.02 0.46 0.46 94 1009.4
20260509194531 51 0 0.0 2.6 0.03 0.46 0.46 94 1009.6
20260509194012 51 0 0.0 3.5 0.03 0.46 0.46 94 1009.6
20260509193515 51 0 0.0 3.5 0.03 0.46 0.46 94 1009.7
20260509193037 51 115 0.9 3.5 0.04 0.46 0.46 94 1009.8